Sigfox identifier Datetime Temperature Humidity SNR
0039541B 2018-10-09 08:34:07 20.5 38 17.5
0039541B 2018-10-09 07:31:58 20.5 38 17.7
0039541B 2018-10-09 06:29:54 20.5 38 17.7
0039541B 2018-10-09 05:27:48 20.4 38 17.8
0039541B 2018-10-09 01:19:19 20.4 37 17.9
0039541B 2018-10-09 00:17:13 20.4 37 17.9
0039541B 2018-10-08 21:10:47 20.4 37 17.9
0039541B 2018-10-08 20:08:39 20.4 37 18
0039541B 2018-10-08 19:06:27 20.4 37 18
0039541B 2018-10-08 18:04:19 20.4 37 14
0039541B 2018-10-08 17:02:09 20.4 37 14
0039541B 2018-10-08 16:00:01 20.4 36 13.9
0039541B 2018-10-08 14:57:50 20.5 36 13.9
0039541B 2018-10-08 12:53:39 20.6 37 14.2
0039541B 2018-10-08 11:51:27 20.5 34 14.1
0039541B 2018-10-08 10:49:19 20.4 32 14.1
0039541B 2018-10-08 09:47:12 20.4 32 14.3
0039541B 2018-10-08 08:45:01 20.4 31 14.4
0039541B 2018-10-08 06:40:39 20.4 33 14.2
0039541B 2018-10-08 05:38:32 20.4 34 14.1
0039541B 2018-10-08 04:36:24 20.4 34 14.3
0039541B 2018-10-08 03:34:15 20.4 34 14.2
0039541B 2018-10-08 02:32:02 20.4 35 14.4
0039541B 2018-10-08 00:27:41 20.5 36 14.3
0039541B 2018-10-07 23:25:32 20.5 36 14.2
0039541B 2018-10-07 22:23:23 20.5 37 14
0039541B 2018-10-07 21:21:07 20.6 37 14.4
0039541B 2018-10-07 20:18:53 20.6 38 14.6
0039541B 2018-10-07 19:16:40 20.6 38 14.9
0039541B 2018-10-07 18:14:33 20.6 38 15.2
0039541B 2018-10-07 17:12:20 20.6 38 15
0039541B 2018-10-07 15:08:03 20.6 38 18.6
0039541B 2018-10-07 14:05:53 20.6 38 18.6
0039541B 2018-10-07 13:03:43 20.6 38 18.6
0039541B 2018-10-07 12:01:29 20.6 38 18.6
0039541B 2018-10-07 10:59:20 20.6 38 18.6
0039541B 2018-10-07 09:57:08 20.6 38 18.7
0039541B 2018-10-07 08:54:58 20.6 38 18.8
0039541B 2018-10-07 07:52:47 20.6 38 18.7
0039541B 2018-10-07 06:50:39 20.6 38 18.7
0039541B 2018-10-07 05:48:25 20.6 39 18.8
0039541B 2018-10-07 04:46:17 20.6 39 18.7
0039541B 2018-10-07 03:44:02 20.6 39 18.7
0039541B 2018-10-07 02:41:51 20.7 39 18.8
0039541B 2018-10-07 01:39:41 20.7 40 18.7
0039541B 2018-10-07 00:37:27 20.8 40 18.7
0039541B 2018-10-06 23:35:16 20.8 40 18.7
0039541B 2018-10-06 22:33:02 20.8 40 18.6
0039541B 2018-10-06 21:30:55 20.8 40 18.8
0039541B 2018-10-06 20:28:39 20.8 40 18.9
0039541B 2018-10-06 19:26:29 20.8 40 19
0039541B 2018-10-06 18:24:18 20.8 39 18.8
0039541B 2018-10-06 17:22:08 20.8 39 18.8
0039541B 2018-10-06 16:19:56 20.8 40 18.9
0039541B 2018-10-06 15:17:46 20.8 40 18.9
0039541B 2018-10-06 14:15:36 20.8 40 19.1
0039541B 2018-10-06 13:13:25 20.8 40 15.5
0039541B 2018-10-06 12:11:17 20.8 40 15.4
0039541B 2018-10-06 11:09:07 20.8 40 15.5
0039541B 2018-10-06 10:06:58 20.8 40 15.6
0039541B 2018-10-06 09:04:49 20.8 40 15.7
0039541B 2018-10-06 08:02:40 20.8 40 15.5
0039541B 2018-10-06 07:00:33 20.8 40 15.4
0039541B 2018-10-06 05:58:25 21 41 15.6
0039541B 2018-10-06 04:56:19 21 41 15.8
0039541B 2018-10-06 03:54:12 21 41 15.5
0039541B 2018-10-06 02:52:05 21 42 15.7
0039541B 2018-10-06 01:49:54 21 42 15.8
0039541B 2018-10-06 00:47:43 21.1 43 15.6
0039541B 2018-10-05 23:45:32 21.2 43 15.9
0039541B 2018-10-05 22:43:20 21.2 43 15.6
0039541B 2018-10-05 21:41:09 21.3 44 16.2
0039541B 2018-10-05 20:38:56 21.3 44 16.8
0039541B 2018-10-05 19:36:45 21.4 44 16.1
0039541B 2018-10-05 18:34:33 21.5 45 14.3
0039541B 2018-10-05 17:32:22 21.5 46 6.4
0039541B 2018-10-05 16:30:10 21.7 46 0